When you browse on this site, cookies collect data to enhance your experience and personalize the content and advertising you see.
Visit our Privacy Policy to learn more. By continuing to use the site, you agree to this use of cookies and data.
  • In Belgien
  • Länderverzeichnis
  • Für 7 Tage
  • Wassertemperatur
  • Wetterkarte
  • Widgets
  • user-avatar
    Anmelden

    Stündliche Wetter Nkongsamba

    Heute, 19 November, Dienstag

    Zeit Temperatur Niederschläge Wind Luftdruck Luftfeuchtigkeit
    00:00 +21°C° 0 mm 1 m/S 684 mmHg 91%
    01:00 +21°C° 0 mm 1 m/S 684 mmHg 92%
    02:00 +19°C° 0 mm 0 m/S 684 mmHg 91%
    03:00 +19°C° 0 mm 0 m/S 684 mmHg 91%
    04:00 +19°C° 0 mm 0 m/S 683 mmHg 91%
    05:00 +19°C° 0 mm 0 m/S 684 mmHg 89%
    06:00 +19°C° 0 mm 0 m/S 684 mmHg 87%
    07:00 +19°C° 0 mm 0 m/S 685 mmHg 85%
    08:00 +22°C° 0 mm 0 m/S 685 mmHg 75%
    09:00 +25°C° 0 mm 0 m/S 686 mmHg 64%
    10:00 +27°C° 0 mm 0 m/S 686 mmHg 54%
    11:00 +30°C° 0 mm 1 m/S 686 mmHg 50%
    12:00 +31°C° 0 mm 1 m/S 686 mmHg 45%
    13:00 +32°C° 0 mm 1 m/S 685 mmHg 41%
    14:00 +32°C° 0 mm 1 m/S 685 mmHg 43%
    15:00 +31°C° 0 mm 1 m/S 684 mmHg 44%
    16:00 +31°C° 0 mm 1 m/S 683 mmHg 45%
    17:00 +28°C° 0.3 mm 1 m/S 683 mmHg 59%
    18:00 +26°C° 0.3 mm 1 m/S 683 mmHg 73%
    19:00 +21°C° 0.3 mm 0 m/S 683 mmHg 87%
    20:00 +21°C° 0.1 mm 0 m/S 684 mmHg 88%
    21:00 +20°C° 0.1 mm 0 m/S 684 mmHg 90%
    22:00 +20°C° 0.1 mm 0 m/S 685 mmHg 91%
    23:00 +20°C° 0 mm 0 m/S 685 mmHg 92%

    Morgen, 20 November, Mittwoch

    Zeit Temperatur Niederschläge Wind Luftdruck Luftfeuchtigkeit
    00:00 +19°C° 0 mm 0 m/S 684 mmHg 93%
    01:00 +19°C° 0 mm 0 m/S 684 mmHg 93%
    02:00 +19°C° 0.1 mm 0 m/S 684 mmHg 93%
    03:00 +19°C° 0.1 mm 0 m/S 683 mmHg 93%
    04:00 +19°C° 0.1 mm 0 m/S 683 mmHg 92%
    05:00 +19°C° 0 mm 0 m/S 684 mmHg 91%
    06:00 +19°C° 0 mm 0 m/S 684 mmHg 89%
    07:00 +20°C° 0 mm 0 m/S 685 mmHg 87%
    08:00 +22°C° 0 mm 0 m/S 685 mmHg 78%
    09:00 +26°C° 0 mm 1 m/S 686 mmHg 69%
    10:00 +29°C° 0 mm 1 m/S 686 mmHg 60%
    11:00 +29°C° 0.2 mm 1 m/S 686 mmHg 57%
    12:00 +30°C° 0.2 mm 1 m/S 685 mmHg 55%
    13:00 +31°C° 0.2 mm 1 m/S 685 mmHg 52%
    14:00 +30°C° 0.9 mm 1 m/S 684 mmHg 57%
    15:00 +29°C° 0.9 mm 1 m/S 683 mmHg 63%
    16:00 +28°C° 0.9 mm 1 m/S 683 mmHg 68%
    17:00 +26°C° 0.5 mm 1 m/S 683 mmHg 76%
    18:00 +25°C° 0.5 mm 1 m/S 683 mmHg 84%
    19:00 +21°C° 0.5 mm 0 m/S 683 mmHg 92%
    20:00 +21°C° 0.3 mm 0 m/S 684 mmHg 93%
    21:00 +20°C° 0.3 mm 0 m/S 684 mmHg 95%
    22:00 +20°C° 0.3 mm 0 m/S 685 mmHg 96%
    23:00 +20°C° 0.3 mm 0 m/S 684 mmHg 96%

    übermorgen, 21 November, Donnerstag

    Zeit Temperatur Niederschläge Wind Luftdruck Luftfeuchtigkeit
    00:00 +20°C° 0.3 mm 0 m/S 684 mmHg 96%
    01:00 +19°C° 0.3 mm 0 m/S 684 mmHg 97%
    02:00 +19°C° 0 mm 0 m/S 684 mmHg 96%
    03:00 +19°C° 0 mm 0 m/S 683 mmHg 96%
    04:00 +19°C° 0 mm 0 m/S 683 mmHg 95%
    05:00 +19°C° 0 mm 0 m/S 683 mmHg 94%
    06:00 +19°C° 0 mm 0 m/S 684 mmHg 93%
    07:00 +20°C° 0 mm 0 m/S 684 mmHg 92%
    08:00 +21°C° 0.1 mm 0 m/S 685 mmHg 87%
    09:00 +23°C° 0.1 mm 0 m/S 685 mmHg 82%
    10:00 +26°C° 0.1 mm 1 m/S 686 mmHg 77%
    11:00 +27°C° 0.3 mm 1 m/S 685 mmHg 73%
    12:00 +28°C° 0.3 mm 1 m/S 685 mmHg 69%
    13:00 +28°C° 0.3 mm 1 m/S 684 mmHg 66%
    14:00 +28°C° 0.8 mm 1 m/S 684 mmHg 70%
    15:00 +27°C° 0.8 mm 1 m/S 683 mmHg 75%
    16:00 +26°C° 0.8 mm 1 m/S 683 mmHg 79%
    17:00 +25°C° 0.5 mm 1 m/S 683 mmHg 85%
    18:00 +23°C° 0.5 mm 1 m/S 683 mmHg 91%
    19:00 +20°C° 0.5 mm 0 m/S 684 mmHg 97%
    20:00 +20°C° 0.1 mm 0 m/S 684 mmHg 97%
    21:00 +20°C° 0.1 mm 0 m/S 684 mmHg 97%
    22:00 +20°C° 0.1 mm 0 m/S 685 mmHg 97%
    23:00 +19°C° 0 mm 0 m/S 685 mmHg 97%

    22 November, Freitag

    Zeit Temperatur Niederschläge Wind Luftdruck Luftfeuchtigkeit
    00:00 +19°C° 0 mm 0 m/S 684 mmHg 97%
    01:00 +19°C° 0 mm 0 m/S 684 mmHg 97%
    02:00 +19°C° 0 mm 0 m/S 684 mmHg 97%
    03:00 +19°C° 0 mm 0 m/S 684 mmHg 97%
    04:00 +19°C° 0 mm 0 m/S 684 mmHg 97%
    05:00 +19°C° 0 mm 0 m/S 684 mmHg 96%
    06:00 +19°C° 0 mm 0 m/S 684 mmHg 96%
    07:00 +20°C° 0 mm 0 m/S 685 mmHg 95%
    08:00 +21°C° 0 mm 0 m/S 685 mmHg 89%
    09:00 +22°C° 0 mm 0 m/S 686 mmHg 83%
    10:00 +26°C° 0 mm 1 m/S 686 mmHg 77%
    11:00 +27°C° 0.1 mm 1 m/S 686 mmHg 73%
    12:00 +28°C° 0.1 mm 1 m/S 685 mmHg 69%
    13:00 +28°C° 0.1 mm 1 m/S 685 mmHg 64%
    14:00 +27°C° 0.7 mm 1 m/S 685 mmHg 70%
    15:00 +26°C° 0.7 mm 1 m/S 684 mmHg 77%
    16:00 +25°C° 0.7 mm 1 m/S 684 mmHg 83%
    17:00 +24°C° 0.3 mm 1 m/S 684 mmHg 88%
    18:00 +23°C° 0.3 mm 1 m/S 684 mmHg 93%
    19:00 +19°C° 0.3 mm 0 m/S 684 mmHg 98%
    20:00 +19°C° 0.2 mm 0 m/S 685 mmHg 97%
    21:00 +19°C° 0.2 mm 0 m/S 685 mmHg 97%
    22:00 +19°C° 0.2 mm 0 m/S 686 mmHg 97%
    23:00 +19°C° 0.1 mm 0 m/S 686 mmHg 97%

    23 November, Samstag

    Zeit Temperatur Niederschläge Wind Luftdruck Luftfeuchtigkeit
    00:00 +19°C° 0.1 mm 0 m/S 686 mmHg 98%
    01:00 +19°C° 0.1 mm 0 m/S 685 mmHg 98%
    02:00 +18°C° 0 mm 0 m/S 685 mmHg 98%
    03:00 +18°C° 0 mm 0 m/S 685 mmHg 97%
    04:00 +18°C° 0 mm 0 m/S 685 mmHg 97%
    05:00 +18°C° 0 mm 0 m/S 685 mmHg 96%
    06:00 +18°C° 0 mm 0 m/S 685 mmHg 95%
    07:00 +19°C° 0 mm 0 m/S 685 mmHg 94%
    08:00 +21°C° 0 mm 0 m/S 686 mmHg 87%
    09:00 +22°C° 0 mm 0 m/S 686 mmHg 80%
    10:00 +24°C° 0 mm 0 m/S 687 mmHg 73%
    11:00 +27°C° 0 mm 1 m/S 686 mmHg 71%
    12:00 +27°C° 0 mm 1 m/S 686 mmHg 68%
    13:00 +28°C° 0 mm 1 m/S 685 mmHg 66%
    14:00 +27°C° 0.4 mm 1 m/S 685 mmHg 70%
    15:00 +26°C° 0.4 mm 1 m/S 684 mmHg 75%
    16:00 +26°C° 0.4 mm 1 m/S 684 mmHg 80%
    17:00 +24°C° 0.3 mm 1 m/S 684 mmHg 85%
    18:00 +21°C° 0.3 mm 0 m/S 684 mmHg 90%
    19:00 +20°C° 0.3 mm 0 m/S 684 mmHg 94%
    20:00 +20°C° 0.1 mm 0 m/S 684 mmHg 95%
    21:00 +19°C° 0.1 mm 0 m/S 685 mmHg 95%
    22:00 +19°C° 0.1 mm 0 m/S 685 mmHg 96%
    23:00 +19°C° 0 mm 0 m/S 685 mmHg 96%

    24 November, Sonntag

    Zeit Temperatur Niederschläge Wind Luftdruck Luftfeuchtigkeit
    00:00 +19°C° 0 mm 0 m/S 685 mmHg 96%
    01:00 +19°C° 0 mm 0 m/S 685 mmHg 96%
    02:00 +19°C° 0 mm 0 m/S 684 mmHg 96%
    03:00 +18°C° 0 mm 0 m/S 684 mmHg 96%
    04:00 +18°C° 0 mm 0 m/S 684 mmHg 95%
    05:00 +19°C° 0 mm 0 m/S 684 mmHg 94%
    06:00 +19°C° 0 mm 0 m/S 684 mmHg 93%
    07:00 +19°C° 0 mm 0 m/S 685 mmHg 92%
    08:00 +21°C° 0 mm 0 m/S 685 mmHg 84%
    09:00 +23°C° 0 mm 0 m/S 686 mmHg 76%
    10:00 +27°C° 0 mm 1 m/S 686 mmHg 69%
    11:00 +28°C° 0 mm 1 m/S 686 mmHg 65%
    12:00 +29°C° 0 mm 1 m/S 685 mmHg 61%
    13:00 +30°C° 0 mm 1 m/S 685 mmHg 57%
    14:00 +29°C° 0.3 mm 1 m/S 684 mmHg 62%
    15:00 +28°C° 0.3 mm 1 m/S 684 mmHg 67%
    16:00 +28°C° 0.3 mm 1 m/S 683 mmHg 71%
    17:00 +26°C° 0.6 mm 1 m/S 683 mmHg 79%
    18:00 +24°C° 0.6 mm 1 m/S 683 mmHg 87%
    19:00 +21°C° 0.6 mm 0 m/S 683 mmHg 95%
    20:00 +20°C° 0.3 mm 0 m/S 684 mmHg 95%
    21:00 +20°C° 0.3 mm 0 m/S 684 mmHg 96%
    22:00 +20°C° 0.3 mm 0 m/S 685 mmHg 97%
    23:00 +19°C° 0 mm 0 m/S 685 mmHg 97%
    Mehr zeigen